सभी
Hunter Island Airport YHTR मौसम
There is no TAF data available at YHTR or any nearby airports.
There is no METAR data available at YHTR. Showing METAR data for YSMI (28 mi SE).
Recent SIO METAR history (no data for YHTR)
| Date | Time (AEST) | Flight Rules | Wind Dir. | Speed | Type | Height AGL (ft) | Visibility | Temp (°C) | Temp (°F) | Dew Point (°C) | Dew Point (°F) | Rel. Humid. | Pressure | Density Altitude | Remarks |
|---|---|---|---|---|---|---|---|---|---|---|---|---|---|---|---|
| 05-मई | 16:00 | n/a | 250° | 11 kt | Missing | 14° | 57° | 10° | 50° | 77% | 1017 mb | -201 ft | |||
| 05-मई | 15:00 | n/a | 250° | 10 kt | Missing | 15° | 59° | 11° | 51° | 77% | 1016 mb | -51 ft | |||
| 05-मई | 14:00 | n/a | 250° | 14 kt | Missing | 15° | 59° | 10° | 50° | 72% | 1016 mb | -51 ft | |||
| 05-मई | 13:00 | n/a | 240° | 15 kt | Missing | 14° | 57° | 10° | 50° | 77% | 1016 mb | -171 ft | |||
| 05-मई | 12:00 | n/a | 230° | 12 kt | Missing | 14° | 57° | 10° | 50° | 77% | 1016 mb | -171 ft | |||
| 05-मई | 11:00 | n/a | 230° | 15 kt | Missing | 14° | 57° | 12° | 53° | 88% | 1015 mb | -142 ft | |||
| 05-मई | 10:00 | n/a | 230° | 13 kt | Missing | 13° | 55° | 12° | 53° | 94% | 1015 mb | -262 ft | |||
| 05-मई | 09:00 | n/a | 230° | 11 kt | Missing | 13° | 55° | 12° | 53° | 94% | 1014 mb | -232 ft | |||
| 05-मई | 08:00 | n/a | 240° | 9 kt | Missing | 12° | 53° | 10° | 50° | 88% | 1013 mb | -323 ft | |||
| 05-मई | 07:00 | n/a | 230° | 10 kt | Missing | 11° | 51° | 10° | 50° | 94% | 1012 mb | -413 ft | |||
| 05-मई | 06:00 | n/a | 240° | 11 kt | Missing | 12° | 53° | 12° | 53° | 100% | 1011 mb | -264 ft | |||
| 05-मई | 05:00 | n/a | 230° | 11 kt | Missing | 13° | 55° | 12° | 53° | 94% | 1010 mb | -114 ft | |||
| 05-मई | 04:00 | n/a | 220° | 12 kt | Missing | 13° | 55° | 12° | 53° | 94% | 1009 mb | -85 ft | |||
| 05-मई | 03:00 | n/a | 220° | 10 kt | Missing | 12° | 53° | 12° | 53° | 100% | 1008 mb | -175 ft | |||
| 05-मई | 02:00 | n/a | 210° | 7 kt | Missing | 11° | 51° | 10° | 50° | 94% | 1007 mb | -266 ft | |||
| 05-मई | 01:00 | n/a | 200° | 9 kt | Missing | 12° | 53° | 11° | 51° | 94% | 1007 mb | -146 ft | |||
| 05-मई | 00:00 | n/a | 200° | 8 kt | Missing | 13° | 55° | 12° | 53° | 94% | 1006 mb | 4 ft | |||
| 04-मई | 23:00 | n/a | 180° | 10 kt | Missing | 13° | 55° | 11° | 51° | 88% | 1006 mb | 4 ft | |||
| 04-मई | 22:00 | n/a | 30° | 4 kt | Missing | 14° | 57° | 13° | 55° | 94% | 1006 mb | 124 ft | |||
| 04-मई | 21:00 | n/a | 10° | 7 kt | Missing | 15° | 59° | 13° | 55° | 88% | 1005 mb | 273 ft | |||
| 04-मई | 20:00 | n/a | 10° | 7 kt | Missing | 14° | 57° | 12° | 53° | 88% | 1006 mb | 124 ft | |||
| 04-मई | 19:00 | n/a | 10° | 12 kt | Missing | 16° | 60° | 12° | 53° | 77% | 1006 mb | 364 ft | |||
| 04-मई | 18:00 | n/a | 360° | 11 kt | Missing | 15° | 59° | 12° | 53° | 82% | 1006 mb | 244 ft | |||
| 04-मई | 17:00 | n/a | 360° | 10 kt | Missing | 15° | 59° | 13° | 55° | 88% | 1006 mb | 244 ft |
लॉगिन
| Your browser is unsupported. अपना ब्राऊजर अपग्रेड करें |
